{"data":{"norad_id":67845,"epoch":"2026-05-25T04:05:48.123168Z","epoch_age_seconds":67200,"freshness":"FRESH","line1":"1 67845U 26033AA  26145.17069587  .00012262  00000+0  45422-3 0  9997","line2":"2 67845  43.0004 194.8716 0000868 273.5573  86.5180 15.27590328 16370","mean_motion":15.27590328,"eccentricity":8.68e-5,"inclination_deg":43.0004,"raan_deg":194.8716,"arg_perigee_deg":273.5573,"mean_anomaly_deg":86.518,"bstar":0.00045422,"rev_number":1637,"period_min":94.266111378521,"perigee_km":482.42262219762,"apogee_km":483.61371873521,"semimajor_km":6861.1551704664,"source":"CELESTRAK","updated_at":"2026-05-25T13:38:21.723238Z"}}